Flag for U.S.A. Weather past 2 weeks in Mansfield, Texas, U.S.A.

Now
75 °F

Sunny.


Feels Like: 77 °F
Forecast: 66 / 79 °F
Wind: 15 mph from South

Location: Burleson-Rendon

Current Time: Mar 31, 2015 at 9:12:05 PM

Latest Report: Mar 31, 2015 at 8:15 PM


Visibility: 10 mi

Pressure: 29.90 "Hg

Humidity: 60%

Dew point: 60 °F

Location of MansfieldLocation

Historic Weather in Mansfield — Graph

°F

Mansfield temperature yesterday

Maximum temperature yesterday: 79 °F (at 4:48 PM)
Minimum temperature yesterday: 58 °F (at 4:55 AM)
Average temperature yesterday: 67 °F

Past Weeks' High & Low Weather Summary

 TemperatureHumidityPressure
High84 °F (Mar 24, 2:55 PM)100% (Mar 19, 9:55 AM)30.21 "Hg (Mar 19, 9:55 AM)
Low40 °F (Mar 27, 1:55 AM)25% (Mar 28, 4:54 PM)29.78 "Hg (Mar 25, 11:55 PM)
Average62 °F76%30.05 "Hg
* Reported Mar 16 5:47 PM — Mar 31 5:49 PM, Mansfield, Weather by CustomWeather, © 2015

Note: Actual official high and low records may vary slightly from our data, if they occured in-between our weather recording intervals... More about our weather records

Advertising

Mansfield weather history for previous 24 hours

 ConditionsComfort  
Time TempWeatherWind HumidityBarometerVisibility
5:49 PM
Tue, Mar 31
82 °FSunny.13 mph48%29.88 "Hg10 mi
4:46 PM82 °FSunny.12 mph51%29.90 "Hg10 mi
3:50 PM82 °FPassing clouds.9 mph55%29.92 "Hg10 mi
2:47 PM82 °FPassing clouds.6 mph55%29.95 "Hg10 mi
1:52 PM82 °FPassing clouds.9 mph55%29.97 "Hg10 mi
12:46 PM79 °FScattered clouds.9 mph61%30.00 "Hg10 mi
11:55 AM79 °FPartly sunny.12 mph61%30.03 "Hg10 mi
10:52 AM73 °FPartly sunny.8 mph74%30.04 "Hg10 mi
9:52 AM72 °FScattered clouds.15 mph78%30.03 "Hg10 mi
8:49 AM68 °FSunny.8 mph83%30.03 "Hg10 mi
7:52 AM64 °FPassing clouds.5 mph94%30.02 "Hg10 mi
6:50 AM64 °FPassing clouds.9 mph94%30.00 "Hg10 mi
6:35 AM64 °FClear.10 mph91%30.00 "Hg10 mi
6:15 AM65 °FClear.8 mph90%30.00 "Hg10 mi
5:55 AM65 °FClear.9 mph90%30.00 "Hg10 mi
5:35 AM65 °FClear.8 mph88%30.00 "Hg10 mi
5:15 AM66 °FClear.6 mph86%30.00 "Hg10 mi
4:55 AM66 °FClear.10 mph84%29.98 "Hg10 mi
4:35 AM66 °FClear.12 mph84%29.97 "Hg10 mi
4:15 AM66 °FClear.10 mph84%29.98 "Hg10 mi
3:55 AM67 °FClear.9 mph83%29.98 "Hg10 mi
3:15 AM67 °FClear.10 mph81%30.00 "Hg10 mi
2:55 AM67 °FClear.10 mph82%30.00 "Hg10 mi
2:15 AM68 °FClear.8 mph79%30.02 "Hg10 mi
1:55 AM69 °FClear.12 mph78%30.01 "Hg10 mi
1:35 AM69 °FClear.10 mph78%30.02 "Hg10 mi
1:15 AM68 °FClear.9 mph79%30.02 "Hg10 mi
12:55 AM68 °FClear.9 mph80%30.02 "Hg10 mi
12:35 AM68 °FClear.8 mph80%30.02 "Hg10 mi
12:15 AM68 °FClear.7 mph80%30.03 "Hg10 mi
11:55 PM
Mon, Mar 30
68 °FClear.7 mph79%30.04 "Hg10 mi
11:35 PM69 °FClear.8 mph80%30.04 "Hg10 mi
11:15 PM69 °FClear.8 mph79%30.04 "Hg10 mi
10:55 PM69 °FClear.8 mph79%30.04 "Hg10 mi
10:15 PM70 °FClear.9 mph79%30.05 "Hg10 mi
9:55 PM70 °FClear.6 mph78%30.05 "Hg10 mi
9:15 PM70 °FClear.No wind76%30.06 "Hg10 mi
Weather by CustomWeather, © 2015

See weather overviewHow to use our weather pages